Regional Weather Roundup
Issued by NWS

Home | Current Version | Previous Version | Graphics & Text | Print | Product List | Glossary On
Versions: 1 2 3 4 5 6 7 8 9 10 11 12 13 14 15 16 17 18 19 20 21 22 23 24 25 26 27 28 29 30 31 32 33 34 35 36 37 38 39 40 41 42 43 44 45 46 47 48 49 50
000
ASUS43 KFSD 180702
RWRSD

WEATHER ROUNDUP FOR SOUTH DAKOTA
NATIONAL WEATHER SERVICE SIOUX FALLS SD
100 AM CST SUN FEB 18 2018

NOTE: "FAIR" INDICATES FEW OR NO CLOUDS BELOW 12,000 FEET WITH NO
SIGNIFICANT WEATHER AND/OR OBSTRUCTIONS TO VISIBILITY.


SDZ001>005-009-010-012>017-180800-
NORTHWEST AND NORTH CENTRAL SOUTH DAKOTA

CITY           SKY/WX    TMP DP  RH WIND       PRES   REMARKS
BUFFALO          N/A     17   8  67 E15       29.48F WCI   2
FAITH            N/A     19  16  88 E16G25    29.57F WCI   4
MOBRIDGE       CLOUDY    20  15  81 E17       29.70F WCI   5
$$

SDZ012>016-024>037-041>051-057-063-072>074-180800-
SOUTHWEST AND SOUTH CENTRAL SOUTH DAKOTA

CITY           SKY/WX    TMP DP  RH WIND       PRES   REMARKS
RAPID CTY ARPT CLOUDY    23  21  92 SE7       29.49F WCI  15
PIERRE         CLOUDY    26  22  84 SE21G26   29.68F WCI  12
CUSTER         CLOUDY    34  12  40 SW6       29.50F WCI  29
ELLSWORTH AFB  CLOUDY    22  22  99 NE5       29.48F WCI  16
PHILIP         CLOUDY    30  25  81 E14       29.56F WCI  19
PINE RIDGE     MOCLDY    39  23  52 S24G33    29.54F
SPEARFISH        N/A     21  18  86 CALM      29.45F
WINNER         FAIR      33  24  69 S25G36    29.67F WCI  20
$$

SDZ004>011-016>023-039-040-180800-
NORTHEAST SOUTH DAKOTA

CITY           SKY/WX    TMP DP  RH WIND       PRES   REMARKS
ABERDEEN       LGT SNOW  21  15  78 E7        29.90F WCI  12
WATERTOWN      CLOUDY    21  17  84 E7        29.89F WCI  12
BROOKINGS      CLOUDY    22  19  89 SE12      29.93F WCI  10
SISSETON         N/A     19  11  70 S5        29.98S WCI  12
$$

SDZ017-020-022-023-036>040-048>070-180800-
SOUTHEAST SOUTH DAKOTA

CITY           SKY/WX    TMP DP  RH WIND       PRES   REMARKS
SIOUX FALLS    CLOUDY    24  21  88 SE9       29.96F WCI  14
HURON          CLOUDY    24  20  84 SE13      29.87F WCI  12
CHAMBERLAIN    MOCLDY    30  28  90 E18       29.75F WCI  18
MITCHELL       CLOUDY    26  23  88 SE15      29.89F WCI  14
YANKTON        CLOUDY    24  22  91 E9        29.94F WCI  14
$$

ABBREVIATIONS USED IN REMARKS
   TC - TEMPERATURE IN CELSIUS
  WCI - WIND CHILL INDEX
   HX - HEAT INDEX
  VSB - VISIBILITY





USA.gov is the U.S. government's official web portal to all federal, state and local government web resources and services.